Wind_Speed
12 13 13 13 13 13 13 13 12 12 12 12 13 13 13 12 12 11 10 9 8 7 7 6 6 6 6 7 8 9 11 11 12 13 13 14 14 15 15 15 15 15 14 13
13 13 14 13 13 14 14 14 14 13 12 13 15 14 13 13 12 12 11 10 9 9 8 7 7 7 7 7 8 9 10 11 12 12 13 13 14 14 14 14 14 14 14 13
14 15 15 14 14 15 15 14 15 14 13 15 15 15 14 14 13 13 13 12 11 10 9 9 8 8 8 8 8 9 10 10 11 12 12 13 13 14 14 14 14 14 13 12
16 16 17 14 15 16 16 15 16 15 15 16 16 16 16 15 15 15 14 13 13 12 11 10 10 9 9 9 9 9 10 10 11 12 12 13 13 14 14 14 14 14 13 12
18 18 17 16 17 17 17 17 18 17 17 18 18 17 17 17 17 16 16 15 14 14 13 12 11 11 11 10 10 10 10 11 11 12 12 13 13 14 14 14 14 14 14 13
20 21 20 17 18 19 19 19 20 19 19 19 19 18 19 19 19 18 18 17 16 16 15 14 13 13 12 12 12 11 11 11 12 12 13 13 14 14 14 15 15 15 14 14
23 24 22 20 21 21 21 22 22 22 21 21 21 21 20 20 20 20 20 19 18 18 17 16 16 15 15 14 14 13 13 13 13 14 14 14 14 15 15 15 15 15 15 15
26 27 25 24 24 24 25 25 24 24 24 23 23 23 22 22 22 22 22 21 20 20 19 19 18 17 17 16 16 15 15 15 15 15 15 15 15 16 16 16 16 16 16 16
30 29 29 29 29 28 28 28 27 27 27 26 26 26 25 24 24 24 24 23 22 22 21 21 20 20 19 18 18 17 17 17 16 16 17 17 17 17 17 17 17 17 17 17
34 32 33 33 32 32 32 31 31 30 30 30 29 28 28 28 27 26 26 26 25 24 24 23 23 22 22 21 20 19 19 19 18 18 18 18 18 18 18 19 19 19 19 19
38 37 37 36 36 37 36 35 35 34 33 33 32 31 31 31 30 29 29 28 28 27 26 26 25 25 24 23 23 22 22 21 20 20 20 20 20 20 20 20 21 20 20 20
42 41 42 40 40 40 40 39 39 38 37 36 36 34 34 34 33 33 32 31 30 30 29 28 28 27 27 26 25 25 24 23 23 23 22 22 22 22 22 22 22 22 22 22
46 46 46 45 44 44 44 43 42 42 41 40 39 38 37 36 35 35 35 34 33 32 32 31 30 30 29 28 28 27 27 26 25 25 25 24 24 24 24 24 24 24 24 24
49 49 49 48 47 47 47 46 46 45 44 44 43 42 40 39 38 37 37 36 35 35 34 34 33 32 32 31 30 30 29 28 28 27 27 27 27 26 26 26 26 26 26 26
49 50 50 49 49 48 48 48 48 47 46 46 46 45 44 42 41 40 40 39 38 37 36 36 35 35 34 33 33 32 31 30 30 30 29 29 29 29 29 28 28 28 28 28
49 49 50 50 50 49 49 49 50 49 48 48 48 48 47 46 44 43 42 42 41 40 39 38 37 36 36 36 35 34 33 33 32 32 32 31 31 31 31 30 30 30 30 30
48 48 49 49 49 48 49 49 50 50 49 49 49 49 49 48 47 45 44 43 43 42 41 40 39 38 37 37 36 36 35 35 34 34 33 33 33 33 33 33 32 33 33 33
49 48 48 48 47 47 47 48 48 49 48 48 49 49 49 49 48 47 45 45 44 44 43 42 41 39 39 38 38 37 37 37 36 36 35 35 35 35 35 35 35 34 34 35
47 46 46 45 45 45 45 46 46 46 47 47 47 48 48 48 48 48 47 46 45 45 44 43 42 41 41 40 39 39 38 38 38 37 37 37 37 37 36 36 36 36 36 36
45 45 45 45 45 45 45 45 45 45 46 47 46 47 47 47 47 48 48 47 46 45 46 46 45 44 42 42 41 41 40 40 39 39 39 38 38 38 38 38 38 38 38 38
44 44 44 44 44 45 45 44 44 45 45 46 46 46 46 46 46 46 48 48 47 46 46 46 46 45 45 44 43 43 42 42 41 41 41 40 40 40 40 40 40 40 40 40
43 42 42 43 43 43 44 43 43 44 44 44 44 44 44 45 46 45 46 47 47 47 47 47 46 46 46 46 45 44 44 43 43 43 42 42 41 41 41 41 41 41 41 41
42 42 41 41 42 42 42 42 42 42 42 42 42 43 43 43 44 45 46 46 46 47 47 47 47 47 47 46 46 46 45 44 44 43 43 43 43 43 43 43 43 42 42 42
41 41 41 40 40 40 40 41 40 41 41 41 41 42 43 43 43 44 46 46 46 47 47 47 48 47 47 46 46 46 45 45 45 45 44 44 45 45 44 44 44 43 43 42
39 39 39 39 38 37 37 38 38 38 39 39 40 40 40 41 42 43 44 46 46 47 47 47 47 47 47 47 46 46 46 45 46 46 46 46 45 45 45 44 43 43 42 42
37 37 37 36 36 36 36 35 35 36 37 37 38 39 39 39 40 41 42 43 44 45 46 46 45 44 44 45 45 45 45 45 46 46 45 45 45 44 44 43 42 42 41 41
36 35 34 33 34 34 34 33 34 34 35 36 36 37 38 38 39 40 42 42 42 42 43 44 44 44 44 43 43 43 43 43 43 43 43 43 43 42 42 42 42 41 41 40
Wind_Direction
271 272 270 268 267 267 266 264 262 257 254 248 247 245 243 242 240 240 242 246 252 260 271 284 297 309 320 331 341 348 353 357 359 2 4 6 8 9 10 11 13 14 14 15
274 273 271 268 267 266 265 263 262 259 254 248 248 246 244 243 241 240 242 246 252 258 266 277 287 296 306 318 330 338 345 351 354 356 357 359 1 3 4 6 7 7 9 10
275 272 271 268 265 264 264 262 261 258 252 248 249 247 244 244 242 240 243 247 252 258 262 270 279 287 294 305 317 327 335 342 347 349 351 353 355 356 357 358 359 0 1 3
276 272 271 269 263 261 261 259 258 257 254 250 247 246 246 246 245 243 244 247 252 256 261 266 273 280 287 295 305 316 325 332 336 339 343 346 347 349 350 351 352 352 352 352
277 275 273 267 265 262 259 257 257 257 254 251 248 248 248 248 247 245 246 248 251 255 259 264 269 274 281 288 296 305 314 322 328 332 335 337 339 341 343 343 344 344 345 344
276 275 274 271 267 265 262 258 257 257 255 252 249 248 247 248 248 248 249 250 252 255 258 262 265 270 275 282 289 296 303 310 318 324 327 330 332 333 335 336 336 335 335 334
274 273 273 272 269 266 262 259 257 256 254 252 251 249 249 249 249 250 251 251 253 255 258 260 264 268 272 277 283 289 296 301 308 313 318 322 325 327 328 328 328 328 327 326
271 270 272 270 268 266 263 260 258 256 255 253 253 252 250 249 250 250 250 251 253 255 257 259 262 266 269 274 279 284 289 294 300 305 309 313 316 318 321 322 323 322 321 320
269 268 268 267 265 264 263 260 258 257 255 254 254 253 252 251 251 250 250 251 252 254 256 258 260 263 266 270 274 279 284 288 293 298 302 305 308 311 314 316 317 317 317 316
269 267 266 264 263 263 262 260 258 257 255 255 255 254 253 252 252 251 251 252 252 253 254 256 258 261 263 267 270 274 278 283 288 292 296 300 304 306 308 311 312 312 313 312
268 267 264 262 261 260 260 260 259 258 257 256 256 255 254 253 252 252 252 252 253 254 255 256 258 260 262 264 267 270 274 279 283 288 291 295 299 302 304 306 307 308 309 309
267 266 264 261 259 259 259 259 258 257 257 257 257 256 255 255 254 253 253 253 253 254 255 256 257 259 261 263 265 268 272 275 279 283 287 291 294 297 300 302 303 304 305 305
268 265 264 263 260 258 257 257 257 256 256 256 256 256 255 255 254 254 254 254 254 254 254 255 256 258 260 262 264 267 270 273 276 279 283 287 290 293 296 298 300 300 301 302
267 266 264 263 261 259 257 256 256 256 255 255 255 255 255 255 254 253 253 253 253 253 253 254 255 256 258 260 263 265 268 271 274 277 280 283 287 290 292 294 296 297 298 300
267 266 265 263 262 260 258 257 255 255 254 254 254 253 253 253 253 252 252 252 252 252 253 254 254 256 257 259 261 263 266 268 271 274 277 281 284 287 289 292 293 294 296 297
267 266 264 263 262 261 260 258 256 254 253 253 253 253 252 252 251 251 251 251 251 252 253 254 255 256 257 258 260 262 264 267 270 273 276 279 282 284 287 289 291 293 294 296
269 267 265 263 262 261 260 260 257 255 253 253 252 252 252 251 250 250 250 250 250 251 251 252 254 255 256 257 259 261 263 266 269 271 274 277 280 283 285 288 290 291 293 294
270 269 267 265 263 261 260 260 259 256 253 252 251 251 251 250 249 249 249 249 249 249 250 251 252 253 255 256 258 260 263 265 268 270 273 276 279 282 284 287 288 290 292 293
271 270 269 267 264 262 259 257 256 255 253 251 250 250 249 249 248 247 246 248 248 248 248 249 250 252 254 256 258 260 262 264 267 270 273 275 278 280 283 285 287 289 291 292
272 269 268 267 264 262 260 257 255 254 253 251 250 249 248 247 247 247 246 246 247 247 247 247 248 250 253 255 257 259 261 264 266 269 272 274 277 279 281 284 286 288 290 291
273 271 268 267 265 264 263 259 255 253 252 251 250 249 247 246 245 245 245 244 245 246 247 248 248 249 251 253 256 258 261 264 266 269 271 273 276 278 280 283 285 287 288 290
275 273 270 268 266 264 263 261 257 255 253 250 249 248 247 245 244 244 244 243 243 244 246 247 248 249 251 253 255 258 261 263 265 268 270 272 275 277 280 282 284 286 287 289
276 275 273 270 267 264 263 262 259 257 254 250 248 247 245 244 243 243 242 241 242 243 245 246 247 249 251 253 255 257 259 262 265 267 270 272 274 277 279 281 283 285 287 288
275 274 273 271 270 266 263 261 260 257 254 251 248 247 245 243 243 243 241 240 240 242 243 245 247 248 250 252 254 256 259 261 264 267 269 272 274 277 279 281 283 284 286 287
275 273 273 272 270 269 266 263 259 257 254 250 247 246 245 244 242 241 240 240 240 241 243 244 246 248 250 252 254 257 260 263 265 268 270 272 274 276 278 280 282 283 285 286
275 274 272 271 270 268 266 264 261 257 254 251 249 247 246 244 243 242 241 241 241 242 243 245 247 248 250 252 255 258 260 263 266 268 270 272 274 275 277 279 280 282 283 285
275 274 272 271 269 268 266 265 262 258 255 253 250 248 246 245 244 243 242 242 242 243 245 246 247 249 251 253 255 257 259 261 263 265 268 270 272 274 276 277 279 281 282 283
Height
5818 5817 5817 5817 5817 5816 5816 5816 5816 5817 5817 5817 5817 5817 5818 5819 5819 5820 5820 5820 5820 5820 5819 5818 5817 5816 5815 5813 5811 5808 5806 5803 5800 5797 5794 5791 5788 5785 5782 5779 5776 5773 5770 5767
5815 5814 5813 5813 5813 5813 5813 5813 5813 5813 5814 5813 5813 5814 5815 5815 5816 5817 5817 5818 5818 5817 5817 5816 5815 5814 5813 5811 5809 5807 5805 5802 5799 5797 5794 5791 5788 5785 5782 5779 5776 5773 5770 5768
5811 5810 5809 5810 5810 5809 5809 5809 5809 5809 5811 5809 5809 5810 5811 5812 5813 5814 5814 5815 5815 5814 5814 5814 5813 5812 5811 5809 5808 5806 5803 5801 5799 5796 5793 5791 5788 5785 5782 5779 5776 5774 5771 5768
5807 5807 5805 5808 5805 5804 5804 5805 5804 5805 5805 5805 5805 5806 5807 5808 5809 5810 5810 5811 5811 5811 5811 5810 5810 5809 5808 5807 5805 5804 5802 5800 5797 5795 5792 5790 5787 5784 5781 5779 5776 5773 5770 5768
5802 5801 5801 5802 5801 5800 5800 5800 5800 5800 5801 5801 5801 5802 5803 5804 5804 5805 5806 5807 5807 5807 5807 5807 5806 5806 5805 5804 5803 5801 5799 5797 5795 5793 5790 5788 5785 5783 5780 5777 5775 5772 5769 5767
5797 5796 5796 5798 5796 5795 5796 5795 5795 5795 5795 5796 5797 5798 5799 5799 5800 5801 5801 5802 5802 5803 5803 5803 5802 5802 5801 5800 5799 5798 5796 5795 5793 5790 5788 5786 5783 5781 5778 5776 5773 5770 5768 5765
5791 5789 5790 5791 5790 5790 5791 5790 5789 5789 5789 5790 5791 5792 5793 5794 5794 5795 5796 5796 5797 5798 5798 5798 5798 5797 5797 5796 5795 5794 5793 5791 5789 5787 5785 5783 5781 5778 5776 5773 5771 5768 5766 5763
5784 5783 5786 5783 5783 5783 5783 5782 5782 5782 5783 5784 5784 5785 5786 5787 5788 5789 5790 5790 5791 5792 5792 5792 5792 5792 5792 5791 5791 5790 5788 5787 5785 5784 5782 5780 5778 5775 5773 5770 5768 5765 5763 5761
5777 5778 5776 5775 5774 5774 5774 5774 5774 5775 5776 5776 5777 5778 5779 5780 5781 5782 5783 5783 5784 5785 5785 5786 5786 5786 5786 5786 5785 5784 5783 5782 5781 5779 5778 5776 5774 5771 5769 5767 5764 5762 5760 5757
5766 5766 5766 5765 5764 5764 5764 5765 5765 5766 5767 5768 5769 5770 5771 5772 5773 5774 5775 5776 5777 5777 5778 5779 5779 5779 5779 5779 5779 5778 5777 5776 5775 5774 5772 5771 5769 5767 5765 5762 5760 5758 5755 5753
5754 5755 5754 5754 5754 5753 5754 5754 5755 5756 5757 5758 5759 5761 5762 5763 5764 5765 5766 5768 5769 5769 5770 5771 5771 5772 5772 5772 5772 5772 5771 5770 5769 5768 5767 5765 5763 5761 5759 5757 5755 5753 5750 5748
5740 5741 5740 5741 5742 5741 5742 5743 5744 5745 5747 5748 5749 5750 5751 5753 5754 5755 5757 5758 5759 5761 5762 5762 5763 5763 5764 5764 5764 5764 5764 5763 5762 5761 5760 5759 5757 5755 5753 5751 5749 5747 5745 5743
5725 5725 5725 5726 5727 5728 5728 5729 5731 5732 5734 5736 5737 5738 5740 5742 5743 5745 5746 5748 5749 5751 5752 5753 5754 5754 5755 5756 5756 5756 5756 5755 5755 5754 5753 5751 5750 5748 5747 5745 5743 5741 5738 5736
5708 5708 5708 5710 5711 5712 5713 5715 5716 5718 5720 5722 5724 5726 5727 5729 5731 5733 5735 5737 5738 5740 5741 5742 5743 5744 5745 5746 5747 5747 5747 5747 5746 5745 5745 5744 5742 5741 5739 5737 5736 5733 5731 5729
5691 5690 5691 5693 5694 5695 5696 5698 5700 5703 5705 5707 5709 5711 5714 5716 5718 5720 5722 5724 5726 5728 5730 5731 5733 5734 5735 5736 5736 5737 5737 5737 5737 5736 5736 5735 5734 5732 5731 5729 5727 5726 5724 5722
5675 5674 5674 5675 5676 5678 5679 5681 5683 5686 5689 5691 5693 5696 5698 5701 5704 5706 5709 5711 5714 5716 5718 5720 5721 5723 5724 5725 5726 5726 5727 5727 5727 5727 5726 5725 5724 5723 5722 5720 5719 5717 5715 5713
5657 5657 5657 5658 5659 5661 5662 5664 5666 5669 5672 5674 5677 5680 5682 5685 5688 5692 5695 5697 5700 5703 5705 5707 5709 5711 5712 5713 5714 5715 5716 5716 5717 5716 5716 5715 5715 5714 5712 5711 5709 5707 5706 5703
5640 5640 5641 5641 5642 5644 5645 5647 5649 5651 5654 5657 5660 5663 5666 5669 5673 5677 5680 5682 5685 5688 5691 5694 5696 5698 5700 5701 5703 5704 5705 5705 5706 5706 5705 5705 5704 5703 5702 5701 5699 5697 5695 5693
5623 5624 5624 5625 5626 5627 5629 5630 5632 5635 5637 5640 5643 5647 5650 5653 5657 5660 5664 5667 5671 5674 5678 5680 5683 5685 5687 5689 5691 5692 5693 5694 5694 5694 5694 5694 5693 5692 5691 5690 5688 5687 5685 5682
5607 5608 5608 5609 5610 5611 5612 5614 5617 5619 5621 5624 5627 5630 5634 5637 5641 5644 5648 5652 5656 5659 5662 5665 5669 5672 5674 5676 5678 5679 5680 5681 5682 5682 5682 5682 5682 5681 5680 5678 5677 5675 5673 5671
5592 5592 5593 5593 5594 5595 5596 5598 5600 5603 5605 5608 5611 5614 5618 5621 5625 5628 5632 5636 5640 5644 5647 5650 5654 5657 5660 5662 5664 5666 5667 5669 5669 5670 5670 5670 5669 5669 5668 5667 5665 5663 5662 5660
5578 5578 5578 5578 5579 5580 5581 5582 5584 5587 5589 5592 5595 5598 5602 5605 5609 5613 5616 5621 5625 5629 5632 5636 5639 5643 5646 5648 5650 5652 5654 5655 5656 5657 5657 5657 5656 5656 5655 5654 5653 5651 5649 5647
5563 5563 5563 5564 5564 5565 5566 5567 5569 5571 5574 5577 5580 5583 5586 5589 5593 5597 5601 5606 5610 5614 5617 5621 5625 5628 5631 5634 5636 5638 5640 5641 5642 5643 5643 5643 5643 5643 5642 5641 5640 5638 5636 5635
5550 5549 5549 5550 5550 5551 5552 5553 5554 5557 5559 5562 5565 5568 5571 5575 5578 5582 5586 5590 5595 5599 5603 5607 5610 5613 5616 5619 5621 5624 5625 5627 5628 5629 5630 5630 5630 5629 5628 5627 5626 5625 5623 5621
5536 5536 5536 5536 5537 5537 5538 5539 5541 5543 5545 5548 5551 5554 5557 5560 5564 5568 5572 5576 5580 5584 5588 5591 5595 5599 5602 5605 5607 5609 5611 5613 5614 5615 5615 5616 5616 5615 5615 5614 5612 5611 5610 5608
5523 5523 5523 5523 5524 5525 5525 5527 5528 5529 5532 5534 5537 5540 5543 5547 5550 5554 5558 5562 5566 5570 5574 5577 5580 5584 5587 5590 5592 5595 5596 5598 5599 5600 5601 5601 5601 5601 5601 5600 5599 5598 5596 5595
5510 5510 5510 5511 5512 5512 5513 5514 5515 5517 5519 5522 5524 5527 5530 5533 5537 5541 5545 5548 5552 5556 5560 5563 5567 5570 5573 5576 5578 5580 5582 5583 5585 5586 5586 5587 5587 5587 5587 5586 5585 5584 5583 5582